Wichita, KS

3:29 AM CDT on April 29, 2017 (GMT -0500)
Wichita Eisenhower National Airport

Weather History for KICT - January, 2014

Change the Weather History Date:

Wednesday, January 1, 2014

  Actual Average Record
Temperature  
Mean Temperature 26 °F 32 °F  
Max Temperature 38 °F 41 °F 66 °F (2005)
Min Temperature 13 °F 22 °F -5 °F (1979)
Degree Days  
Heating Degree Days 39 33  
Month to date heating degree days 39 33  
Since 1 July heating degree days 1994 1876  
Cooling Degree Days 0 0  
Month to date cooling degree days 0 0  
Year to date cooling degree days 0 0  
Moisture  
Dew Point 17 °F    
Average Humidity 75    
Maximum Humidity 85    
Minimum Humidity 64    
Precipitation  
Precipitation 0.02 in 0.02 in 0.69 in (1936)
Month to date precipitation 0.02 0.02  
Year to date precipitation 0.02 0.02  
Snow  
Snow 0.90 in 0.10 in 4.20 in (1925)
Month to date snowfall 0.9 0.1  
Since 1 July snowfall 4.3 5.7  
Snow Depth 1.00 in    
Sea Level Pressure  
Sea Level Pressure 30.16 in    
Wind  
Wind Speed 15 mph (North)    
Max Wind Speed 29 mph    
Max Gust Speed 36 mph    
Visibility 7 miles    
Events Fog , Snow    
T = Trace of Precipitation, MM = Missing Value Source: NWS Daily Summary

Daily Weather History Graph

Daily Weather History Graph

Search for Another Location

Airport or City:

Trip Planner

Search our weather history database for the weather conditions in past years. The results will help you decide how hot, cold, wet, or windy it might be!

Date:

Astronomy

Jan. 01, 2014 Rise Set
Actual Time 7:44 AM CST 5:22 PM CST
Civil Twilight 7:15 AM CST 5:51 PM CST
Nautical Twilight 6:42 AM CST 6:24 PM CST
Astronomical Twilight 6:11 AM CST 6:55 PM CST
Moon 7:37 AM CST (1/1) 6:07 PM CST (1/1)
Length of Visible Light 10h 35m
Length of Day
9h 37m
New Moon, 0% of the Moon is Illuminated
Jan 1
New Moon
Jan 7
First Quarter
Jan 15
Full
Jan 23
Last Quarter
Jan 30
New

Hourly Weather History & Observations

Time (CST) Temp. Windchill Dew Point Humidity Pressure Visibility Wind Dir Wind Speed Gust Speed Precip Events Conditions
12:53 AM 35.1 °F 25.9 °F 26.1 °F 70% 30.02 in 10.0 mi South 13.8 mph - N/A   Clear
1:53 AM 33.1 °F 23.9 °F 26.1 °F 75% 29.99 in 10.0 mi South 12.7 mph - N/A   Clear
2:53 AM 32.0 °F 24.2 °F 25.0 °F 75% 29.98 in 10.0 mi South 9.2 mph - N/A   Clear
3:53 AM 30.9 °F 22.8 °F 25.0 °F 79% 29.98 in 10.0 mi South 9.2 mph - N/A   Clear
4:53 AM 30.0 °F 25.2 °F 24.1 °F 79% 29.96 in 10.0 mi SSE 4.6 mph - N/A   Clear
5:53 AM 28.9 °F 22.8 °F 24.1 °F 82% 29.96 in 10.0 mi ESE 5.8 mph - N/A   Scattered Clouds
6:53 AM 30.0 °F 25.2 °F 24.1 °F 79% 29.98 in 10.0 mi East 4.6 mph - N/A   Scattered Clouds
7:53 AM 30.0 °F 26.5 °F 24.1 °F 79% 29.98 in 10.0 mi East 3.5 mph - N/A   Mostly Cloudy
8:53 AM 34.0 °F 28.8 °F 27.0 °F 75% 29.99 in 10.0 mi NE 5.8 mph - N/A   Mostly Cloudy
9:53 AM 35.1 °F 29.3 °F 27.0 °F 72% 30.01 in 10.0 mi North 6.9 mph - N/A   Mostly Cloudy
10:53 AM 37.9 °F 29.2 °F 27.0 °F 65% 30.02 in 10.0 mi North 15.0 mph - N/A   Mostly Cloudy
11:53 AM 33.1 °F 22.2 °F 23.0 °F 66% 30.01 in 10.0 mi North 17.3 mph 23.0 mph N/A   Mostly Cloudy
12:53 PM 30.0 °F 18.3 °F 21.0 °F 69% 30.01 in 10.0 mi NNE 17.3 mph - N/A   Mostly Cloudy
1:53 PM 28.0 °F 13.6 °F 19.0 °F 69% 30.05 in 10.0 mi North 24.2 mph 31.1 mph N/A   Overcast
2:27 PM 26.6 °F 11.7 °F 17.6 °F 69% 30.04 in 9.0 mi North 24.2 mph 31.1 mph N/A   Overcast
2:53 PM 24.1 °F 7.7 °F 16.0 °F 71% 30.10 in 9.0 mi North 26.5 mph 33.4 mph N/A   Overcast
3:53 PM 21.9 °F 5.8 °F 12.9 °F 68% 30.16 in 7.0 mi North 23.0 mph 33.4 mph N/A   Overcast
4:53 PM 19.9 °F 3.9 °F 10.9 °F 68% 30.20 in 7.0 mi North 20.7 mph 33.4 mph N/A   Overcast
5:53 PM 18.0 °F 1.3 °F 10.0 °F 71% 30.24 in 6.0 mi North 20.7 mph 31.1 mph 0.00 in Snow Light Snow
6:45 PM 15.8 °F -1.9 °F 10.4 °F 79% 30.24 in 0.8 mi North 21.9 mph 29.9 mph 0.00 in Snow Light Snow
6:53 PM 15.1 °F -1.6 °F 10.9 °F 84% 30.30 in 0.8 mi North 18.4 mph 27.6 mph 0.00 in Snow Light Snow
7:16 PM 15.8 °F -1.1 °F 10.4 °F 79% 30.26 in 0.5 mi NNW 19.6 mph 26.5 mph 0.00 in Fog , Snow Snow
7:53 PM 15.1 °F -2.9 °F 10.0 °F 80% 30.33 in 1.0 mi North 21.9 mph 28.8 mph 0.02 in Snow Light Snow
8:15 PM 15.8 °F -2.3 °F 10.4 °F 79% 30.30 in 0.5 mi North 23.0 mph 28.8 mph 0.00 in Fog , Snow Snow
8:30 PM 15.8 °F -1.5 °F 10.4 °F 79% 30.30 in 1.0 mi North 20.7 mph 29.9 mph 0.00 in Snow Light Snow
8:53 PM 15.1 °F -3.3 °F 10.0 °F 80% 30.36 in 2.0 mi North 23.0 mph 29.9 mph 0.00 in Snow Light Snow
9:02 PM 15.8 °F -2.3 °F 10.4 °F 79% 30.31 in 2.5 mi North 23.0 mph 29.9 mph 0.00 in Snow Light Snow
9:25 PM 15.8 °F -0.6 °F 10.4 °F 79% 30.31 in 5.0 mi North 18.4 mph 27.6 mph 0.00 in Snow Light Snow
9:51 PM 15.8 °F -2.3 °F 10.4 °F 79% 30.32 in 10.0 mi North 23.0 mph 28.8 mph 0.00 in   Overcast
9:53 PM 16.0 °F -2.8 °F 10.0 °F 77% 30.37 in 10.0 mi North 25.3 mph 33.4 mph 0.00 in   Overcast
10:34 PM 15.8 °F -1.1 °F 8.6 °F 73% 30.34 in - North 19.6 mph 29.9 mph 0.00 in   Scattered Clouds
10:53 PM 15.1 °F -1.6 °F 8.1 °F 74% 30.39 in 10.0 mi North 18.4 mph 25.3 mph 0.00 in   Clear
11:53 PM 12.9 °F -3.4 °F 7.0 °F 77% 30.41 in 10.0 mi NNW 16.1 mph - N/A   Clear